Погода в Касансае

Узбекистан     41°15′16″N   71°32′40″E
темп.,
°C
ветер,
м/с
пор.,
м/с
влажн.,
%
обл.,
%
осадки,
мм/ч
давл.,
гПа
погр.,
м
5 декабря, вс
вс523:00+7юз1130100 0.0 101910
02:00+5ю113299 0.0 102010
05:00+4всв113688 0.0 102110
08:00+4св223831 0.0 102212
11:00+8вюв2231100 0.0 1022387
14:00+8вюв2233100 0.0 1020619
17:00+5вюв1153100 0.0 102211
20:00+5св225559 0.0 102426
6 декабря, пн
пн623:00+3ссв115867 0.0 102310
02:00+2с116047 0.0 102310
05:00+2ссв115843 0.0 102410
08:00+2ссв22530 0.0 102512
11:00+8всв11360 0.0 1024470
14:00+10юв11320 0.0 1022830
17:00+6ююз11445 0.0 102310
20:00+5с33416 0.0 102413
7 декабря, вт
вт723:00+5с3342100 0.0 102419
02:00+4ссз2241100 0.0 102411
05:00+3ссз2138100 0.0 102410
08:00+4с1134100 0.0 102510
11:00+8юв1126100 0.0 1026260
14:00+10ю2127100 0.0 1024482
17:00+7зюз1136100 0.0 102610
20:00+6ссв1135100 0.0 102710
8 декабря, ср
ср823:00+6ссв1136100 0.0 102710
02:00+4ссв1139100 0.0 102710
05:00+4с1141100 0.0 102810
08:00+4с2240100 0.0 103015
11:00+9св222860 0.0 1030458
14:00+10юв22275 0.0 10281218
17:00+6ююз113813 0.0 103010
20:00+5с22394 0.0 103211
9 декабря, чт
чт923:00+4с33410 0.0 103315
02:00+4ссз33410 0.0 103317
05:00+3ссз33390 0.0 103418
08:00+3ссз33330 0.0 103522
11:00+10св22250 0.0 1033460
14:00+11в22240 0.0 1030958
17:00+6ююв11350 0.0 103010
20:00+6с33310 0.0 103116